Home > Time Zones > World Clock > Weather > China > Hefei > Past weeks

Flag for China Weather past 2 weeks in Hefei, Anhui, China

Now
28 °F

Clear.


Feels Like: 22 °F
Forecast: 29 / 48 °F
Wind: 6 mph from Southwest

Location: Hefei Airport

Current Time: Dec 22, 2014 at 2:54:08 AM

Latest Report: Dec 22, 2014 at 2:00 AM


Visibility: 10 mi

Pressure: 30.45 "Hg

Humidity: 59%

Dew point: 16 °F

Location of HefeiLocation

Historic Weather in Hefei — Graph

°F

Hefei temperature yesterday

Maximum temperature yesterday: 43 °F (at 1:00 PM)
Minimum temperature yesterday: 32 °F (at 8:00 PM)
Average temperature yesterday: 36 °F

Past Weeks' High & Low Weather Summary

 TemperatureHumidityPressure
High55 °F (Dec 19, 2:00 PM)93% (Dec 9, 3:00 AM)30.66 "Hg (Dec 9, 3:00 AM)
Low27 °F (Dec 17, 5:00 AM)17% (Dec 17, 2:00 PM)30.21 "Hg (Dec 15, 2:00 AM)
Average39 °F57%30.43 "Hg
* Reported Dec 7 1:00 AM — Dec 22 1:00 AM, Hefei, Weather by CustomWeather, © 2014

Note: Actual official high and low records may vary slightly from our data, if they occured in-between our weather recording intervals... More about our weather records

Advertising

Hefei weather history for previous 24 hours

 ConditionsComfort  
Time TempWeatherWind HumidityBarometerVisibility
1:00 AM
Dec 22
30 °FPassing clouds.6 mph59%30.45 "HgN/A
12:00 AM32 °FClear.6 mph47%30.48 "Hg10 mi
11:00 PM
Dec 21
32 °FClear.6 mph51%30.48 "Hg10 mi
10:00 PM32 °FClear.6 mph44%30.48 "Hg10 mi
9:00 PM32 °FClear.6 mph47%30.48 "Hg10 mi
8:00 PM32 °FClear.6 mph44%30.48 "Hg10 mi
7:00 PM36 °FClear.6 mph32%30.48 "Hg10 mi
6:00 PM37 °FClear.3 mph33%30.48 "Hg10 mi
5:00 PM39 °FSunny.10 mph28%30.48 "Hg10 mi
4:00 PM41 °FSunny.13 mph24%30.48 "Hg10 mi
3:00 PM41 °FSunny.15 mph24%30.48 "Hg10 mi
2:00 PM43 °FSunny.15 mph24%30.48 "Hg10 mi
1:00 PM43 °FSunny.17 mph22%30.51 "Hg10 mi
12:00 PM41 °FSunny.17 mph28%30.54 "Hg10 mi
11:00 AM39 °FClear.17 mph42%30.54 "Hg4 mi
10:00 AM37 °FClear.15 mph45%30.54 "Hg4 mi
9:00 AM36 °FClear.13 mph52%30.54 "Hg5 mi
8:00 AM34 °FClear.8 mph56%30.51 "Hg5 mi
7:00 AM34 °FClear.8 mph60%30.51 "Hg5 mi
6:00 AM34 °FClear.6 mph65%30.48 "Hg4 mi
5:00 AM34 °FClear.6 mph65%30.48 "Hg4 mi
4:00 AM34 °FClear.3 mph60%30.48 "Hg4 mi
3:00 AM36 °FClear.3 mph52%30.48 "Hg4 mi
2:00 AM36 °FClear.3 mph52%30.48 "Hg4 mi
Weather by CustomWeather, © 2014

See weather overviewHow to use our weather pages